^^
Your Local Weather - Clay, NY Station Historical Data
Daily Summary for April 1, 2017 Units:  Metric    English   Both
« Previous Day
Next Day »
Daily Weekly Monthly Yearly Custom
  High: Low: Average:
Temperature: 4.6 °C -0.6 °C 2.3 °C
Dew Point: 2.7 °C -1.9 °C 0.6 °C
Humidity: 93% 84% 89%
Wind Speed: 8km/h 0km/h 3.2km/h
Wind Gust: 16.1km/h - -
Wind- - South
Pressure: 1019.2 hPa 1007.3 hPa -
Precipitation: 1.27 mm    
Historical Graphs
 
 
Tabular Data for April 1, 2017
Time Temperature Dew Point Pressure Wind Wind Speed Wind Gust Humidity Rainfall Rate (Hourly) solar
00:00 1.6 °C 0.2 °C 1007.3 hPa NE 6.4 km/h 9.7 km/h 91% 0 mm 0 W/m2
00:06 1.6 °C 0.2 °C 1007.3 hPa ENE 8 km/h 11.3 km/h 91% 0 mm 0 W/m2
00:12 1.6 °C 0.2 °C 1007.3 hPa East 8 km/h 8 km/h 91% 0 mm 0 W/m2
00:18 1.6 °C 0.2 °C 1007.7 hPa ENE 6.4 km/h 8 km/h 91% 0 mm 0 W/m2
00:24 1.6 °C 0.2 °C 1007.3 hPa ENE 6.4 km/h 6.4 km/h 91% 0 mm 0 W/m2
00:30 1.6 °C 0.2 °C 1007.7 hPa ENE 8 km/h 8 km/h 91% 0 mm 0 W/m2
00:36 1.6 °C 0.2 °C 1007.7 hPa ENE 6.4 km/h 8 km/h 91% 0 mm 0 W/m2
00:42 1.6 °C 0.2 °C 1007.7 hPa East 6.4 km/h 6.4 km/h 91% 0 mm 0 W/m2
00:48 1.6 °C 0.2 °C 1007.7 hPa ENE 6.4 km/h 16.1 km/h 91% 0 mm 0 W/m2
00:54 1.6 °C 0.2 °C 1007.7 hPa East 6.4 km/h 6.4 km/h 91% 0 mm 0 W/m2
01:00 1.6 °C 0.3 °C 1007.7 hPa ENE 6.4 km/h 8 km/h 91% 0 mm 0 W/m2
01:06 1.6 °C 0.2 °C 1007.7 hPa ENE 6.4 km/h 8 km/h 91% 0 mm 0 W/m2
01:12 1.6 °C 0.3 °C 1007.7 hPa ESE 6.4 km/h 6.4 km/h 91% 0 mm 0 W/m2
01:18 1.6 °C 0.3 °C 1007.7 hPa ENE 6.4 km/h 8 km/h 91% 0 mm 0 W/m2
01:24 1.6 °C 0.3 °C 1007.7 hPa East 6.4 km/h 12.9 km/h 91% 0 mm 0 W/m2
01:30 1.6 °C 0.2 °C 1007.7 hPa ENE 8 km/h 8 km/h 90% 0 mm 0 W/m2
01:36 1.6 °C 0.2 °C 1007.7 hPa East 8 km/h 9.7 km/h 90% 0 mm 0 W/m2
01:42 1.7 °C 0.2 °C 1008 hPa East 8 km/h 8 km/h 90% 0 mm 0 W/m2
01:48 1.7 °C 0.2 °C 1008 hPa East 6.4 km/h 12.9 km/h 90% 0 mm 0 W/m2
01:54 1.7 °C 0.2 °C 1008 hPa East 6.4 km/h 6.4 km/h 90% 0 mm 0 W/m2
02:00 1.7 °C 0.2 °C 1008 hPa NE 8 km/h 9.7 km/h 90% 0 mm 0 W/m2
02:06 1.7 °C 0.2 °C 1008 hPa ENE 8 km/h 9.7 km/h 90% 0 mm 0 W/m2
02:12 1.7 °C 0.2 °C 1008 hPa ESE 6.4 km/h 8 km/h 90% 0 mm 0 W/m2
02:18 1.6 °C 0.2 °C 1008 hPa ENE 4.8 km/h 8 km/h 90% 0 mm 0 W/m2
02:24 1.6 °C 0.2 °C 1008 hPa East 4.8 km/h 9.7 km/h 90% 0 mm 0 W/m2
02:30 1.6 °C 0.1 °C 1008 hPa East 6.4 km/h 6.4 km/h 90% 0 mm 0 W/m2
02:36 1.6 °C 0.1 °C 1008 hPa ENE 6.4 km/h 11.3 km/h 90% 0 mm 0 W/m2
02:42 1.6 °C 0.1 °C 1008 hPa East 6.4 km/h 11.3 km/h 90% 0 mm 0 W/m2
02:48 1.6 °C 0.1 °C 1008.4 hPa East 4.8 km/h 11.3 km/h 90% 0 mm 0 W/m2
02:54 1.5 °C 0.1 °C 1008.4 hPa NE 3.2 km/h 4.8 km/h 90% 0 mm 0 W/m2
03:00 1.5 °C 0.1 °C 1008.4 hPa ENE 3.2 km/h 4.8 km/h 90% 0 mm 0 W/m2
03:06 1.4 °C 0 °C 1008.4 hPa East 4.8 km/h 8 km/h 90% 0 mm 0 W/m2
03:12 1.4 °C 0 °C 1008.4 hPa SE 3.2 km/h 4.8 km/h 90% 0 mm 0 W/m2
03:18 1.4 °C -0.1 °C 1008.4 hPa East 3.2 km/h 6.4 km/h 90% 0 mm 0 W/m2
03:24 1.4 °C 0 °C 1008.4 hPa ENE 4.8 km/h 8 km/h 90% 0 mm 0 W/m2
03:30 1.4 °C -0.1 °C 1008.7 hPa ENE 3.2 km/h 4.8 km/h 90% 0 mm 0 W/m2
03:36 1.4 °C 0.1 °C 1008.7 hPa ENE 3.2 km/h 4.8 km/h 91% 0 mm 0 W/m2
03:42 1.4 °C 0.1 °C 1008.7 hPa ENE 4.8 km/h 8 km/h 91% 0 mm 0 W/m2
03:48 1.4 °C 0.1 °C 1008.7 hPa ENE 4.8 km/h 8 km/h 91% 0 mm 0 W/m2
03:54 1.4 °C 0.1 °C 1008.7 hPa SE 4.8 km/h 4.8 km/h 91% 0 mm 0 W/m2
04:00 1.3 °C 0 °C 1008.7 hPa ESE 3.2 km/h 3.2 km/h 91% 0 mm 0 W/m2
04:06 1.3 °C 0 °C 1008.7 hPa ENE 4.8 km/h 11.3 km/h 91% 0 mm 0 W/m2
04:12 1.3 °C 0 °C 1008.7 hPa East 4.8 km/h 6.4 km/h 91% 0 mm 0 W/m2
04:18 1.3 °C 0 °C 1009 hPa ENE 4.8 km/h 6.4 km/h 91% 0 mm 0 W/m2
04:24 1.3 °C 0 °C 1009 hPa SE 4.8 km/h 6.4 km/h 91% 0 mm 0 W/m2
04:30 1.3 °C -0.1 °C 1009 hPa ENE 4.8 km/h 4.8 km/h 91% 0 mm 0 W/m2
04:36 1.3 °C -0.1 °C 1009 hPa ESE 4.8 km/h 4.8 km/h 91% 0 mm 0 W/m2
04:42 1.2 °C -0.2 °C 1009 hPa SE 4.8 km/h 4.8 km/h 91% 0 mm 0 W/m2
04:48 1.1 °C -0.2 °C 1009 hPa East 4.8 km/h 8 km/h 91% 0 mm 0 W/m2
04:54 1.1 °C -0.2 °C 1009 hPa East 4.8 km/h 4.8 km/h 91% 0 mm 0 W/m2
05:00 1.1 °C -0.1 °C 1009 hPa East 1.6 km/h 3.2 km/h 92% 0 mm 0 W/m2
05:06 1.1 °C -0.1 °C 1009.4 hPa ENE 1.6 km/h 3.2 km/h 92% 0 mm 0 W/m2
05:12 1.1 °C -0.1 °C 1009.4 hPa ENE 1.6 km/h 1.6 km/h 92% 0 mm 0 W/m2
05:18 1.1 °C -0.1 °C 1009.4 hPa East 1.6 km/h 1.6 km/h 92% 0 mm 0 W/m2
05:24 1.1 °C -0.1 °C 1009.7 hPa NE 3.2 km/h 3.2 km/h 92% 0 mm 0 W/m2
05:30 1.1 °C -0.1 °C 1009.7 hPa ENE 3.2 km/h 4.8 km/h 92% 0 mm 0 W/m2
05:36 1.2 °C 0 °C 1009.7 hPa East 1.6 km/h 4.8 km/h 92% 0 mm 0 W/m2
05:42 1.1 °C -0.1 °C 1009.7 hPa East 1.6 km/h 3.2 km/h 92% 0 mm 0 W/m2
05:48 1.2 °C 0 °C 1009.7 hPa ENE 1.6 km/h 4.8 km/h 92% 0 mm 0 W/m2
05:54 1.2 °C 0 °C 1009.7 hPa East 1.6 km/h 3.2 km/h 92% 0 mm 0 W/m2
06:00 1.1 °C -0.1 °C 1010 hPa ENE 1.6 km/h 1.6 km/h 92% 0 mm 0 W/m2
06:06 1.1 °C -0.1 °C 1010 hPa East 3.2 km/h 3.2 km/h 92% 0 mm 0 W/m2
06:12 1.1 °C -0.1 °C 1010 hPa East 3.2 km/h 4.8 km/h 92% 0 mm 0 W/m2
06:18 1.1 °C -0.1 °C 1010 hPa ENE 3.2 km/h 4.8 km/h 92% 0 mm 0 W/m2
06:24 1.1 °C -0.1 °C 1010 hPa ENE 1.6 km/h 3.2 km/h 92% 0 mm 0 W/m2
06:30 1.1 °C -0.1 °C 1010 hPa ENE 1.6 km/h 1.6 km/h 92% 0 mm 0 W/m2
06:36 1.1 °C -0.1 °C 1010.4 hPa ENE 1.6 km/h 1.6 km/h 92% 0 mm 0 W/m2
06:42 1.1 °C -0.1 °C 1010.4 hPa NE 1.6 km/h 4.8 km/h 92% 0 mm 0 W/m2
06:48 1.1 °C -0.1 °C 1010.7 hPa NE 1.6 km/h 4.8 km/h 92% 0 mm 0 W/m2
06:54 1.1 °C -0.1 °C 1010.7 hPa Calm   1.6 km/h 92% 0 mm 0 W/m2
07:00 1.1 °C -0.1 °C 1010.7 hPa Calm     92% 0 mm 5 W/m2
07:06 1.1 °C -0.1 °C 1011.1 hPa NE 1.6 km/h 4.8 km/h 92% 0 mm 5 W/m2
07:12 1.1 °C -0.1 °C 1011.1 hPa Calm   1.6 km/h 92% 0 mm 5 W/m2
07:18 1.1 °C -0.1 °C 1011.1 hPa NE 1.6 km/h 3.2 km/h 92% 0 mm 5 W/m2
07:24 1.2 °C 0.2 °C 1011.4 hPa NE 1.6 km/h 6.4 km/h 93% 0 mm 7 W/m2
07:30 1.2 °C 0.2 °C 1011.4 hPa NE 1.6 km/h 1.6 km/h 93% 0 mm 7 W/m2
07:36 1.3 °C 0.3 °C 1011.4 hPa Calm   3.2 km/h 93% 0 mm 9 W/m2
07:42 1.3 °C 0.3 °C 1011.4 hPa Calm   1.6 km/h 93% 0 mm 11 W/m2
07:48 1.3 °C 0.3 °C 1011.7 hPa Calm   4.8 km/h 93% 0 mm 12 W/m2
07:54 1.3 °C 0.3 °C 1011.7 hPa ENE 1.6 km/h 1.6 km/h 93% 0 mm 14 W/m2
08:00 1.4 °C 0.4 °C 1011.7 hPa Calm     93% 0 mm 23 W/m2
08:06 1.4 °C 0.4 °C 1011.7 hPa ENE 1.6 km/h 4.8 km/h 93% 0 mm 33 W/m2
08:12 1.4 °C 0.4 °C 1011.7 hPa South 1.6 km/h 1.6 km/h 93% 0 mm 44 W/m2
08:18 1.6 °C 0.6 °C 1012.1 hPa NNE 1.6 km/h 4.8 km/h 93% 0 mm 49 W/m2
08:24 1.6 °C 0.6 °C 1012.1 hPa NNE 1.6 km/h 4.8 km/h 93% 0 mm 53 W/m2
08:30 1.7 °C 0.7 °C 1012.4 hPa NNE 1.6 km/h 3.2 km/h 93% 0 mm 51 W/m2
08:36 1.7 °C 0.7 °C 1012.4 hPa NNE 1.6 km/h 3.2 km/h 93% 0 mm 60 W/m2
08:42 1.8 °C 0.8 °C 1012.4 hPa Calm   1.6 km/h 93% 0 mm 63 W/m2
08:48 1.9 °C 0.9 °C 1012.8 hPa Calm   1.6 km/h 93% 0 mm 65 W/m2
08:54 1.9 °C 0.9 °C 1012.8 hPa North 1.6 km/h 8 km/h 93% 0 mm 62 W/m2
09:00 1.9 °C 0.9 °C 1012.8 hPa NNE 3.2 km/h 3.2 km/h 93% 0 mm 72 W/m2
09:06 2.1 °C 0.9 °C 1012.8 hPa NNE 1.6 km/h 3.2 km/h 92% 0 mm 83 W/m2
09:12 2.1 °C 0.9 °C 1012.4 hPa NNE 3.2 km/h 4.8 km/h 92% 0 mm 98 W/m2
09:18 2.1 °C 0.9 °C 1012.4 hPa NE 3.2 km/h 4.8 km/h 92% 0 mm 116 W/m2
09:24 2.3 °C 1.1 °C 1012.8 hPa NE 1.6 km/h 3.2 km/h 92% 0 mm 93 W/m2
09:30 2.3 °C 1.1 °C 1012.8 hPa NNE 1.6 km/h 1.6 km/h 92% 0 mm 97 W/m2
09:36 2.3 °C 1.1 °C 1012.8 hPa NNE 1.6 km/h 1.6 km/h 92% 0 mm 102 W/m2
09:42 2.4 °C 1.2 °C 1012.8 hPa NNE 1.6 km/h 1.6 km/h 92% 0 mm 105 W/m2
09:48 2.4 °C 1.2 °C 1012.8 hPa Calm   1.6 km/h 92% 0 mm 130 W/m2
09:54 2.6 °C 1.4 °C 1013.1 hPa Calm     92% 0 mm 132 W/m2
10:00 2.6 °C 1.4 °C 1013.1 hPa Calm   3.2 km/h 92% 0 mm 139 W/m2
10:06 2.7 °C 1.4 °C 1013.4 hPa NNE 1.6 km/h 3.2 km/h 91% 0 mm 144 W/m2
10:12 2.8 °C 1.4 °C 1013.4 hPa North 1.6 km/h 3.2 km/h 91% 0 mm 142 W/m2
10:18 2.8 °C 1.3 °C 1013.4 hPa North 1.6 km/h 3.2 km/h 90% 0 mm 139 W/m2
10:24 2.9 °C 1.4 °C 1013.4 hPa NNE 1.6 km/h 4.8 km/h 90% 0 mm 135 W/m2
10:30 3.1 °C 1.6 °C 1013.4 hPa NNE 3.2 km/h 3.2 km/h 90% 0 mm 207 W/m2
10:36 3.2 °C 1.7 °C 1013.4 hPa NNE 1.6 km/h 3.2 km/h 90% 0 mm 190 W/m2
10:40 3.2 °C 1.6 °C 1013.4 hPa NNE 1.6 km/h 1.6 km/h 89% 0 mm 200 W/m2
10:46 3.3 °C 1.7 °C 1013.4 hPa NNE 1.6 km/h 3.2 km/h 89% 0 mm 193 W/m2
10:52 3.4 °C 1.7 °C 1013.4 hPa NNE 1.6 km/h 1.6 km/h 88% 0 mm 220 W/m2
10:58 3.6 °C 1.8 °C 1013.4 hPa Calm   1.6 km/h 88% 0 mm 144 W/m2
11:04 3.6 °C 1.6 °C 1013.8 hPa Calm     87% 0 mm 156 W/m2
11:10 3.7 °C 1.7 °C 1013.4 hPa Calm     87% 0 mm 174 W/m2
11:16 3.8 °C 1.9 °C 1013.4 hPa Calm     87% 0 mm 186 W/m2
11:22 3.8 °C 1.7 °C 1013.4 hPa NNE 1.6 km/h 1.6 km/h 86% 0 mm 190 W/m2
11:28 3.9 °C 1.8 °C 1013.4 hPa NNE 1.6 km/h 1.6 km/h 86% 0 mm 236 W/m2
11:34 3.9 °C 1.8 °C 1013.4 hPa NNE 1.6 km/h 3.2 km/h 86% 0 mm 200 W/m2
11:40 4.1 °C 2 °C 1013.8 hPa NNE 1.6 km/h 1.6 km/h 86% 0 mm 158 W/m2
11:46 4.1 °C 1.8 °C 1013.8 hPa NNE 1.6 km/h 1.6 km/h 85% 0 mm 104 W/m2
11:52 4.1 °C 1.8 °C 1013.8 hPa Calm   1.6 km/h 85% 0 mm 95 W/m2
11:58 4.1 °C 1.8 °C 1013.8 hPa NNE 1.6 km/h 4.8 km/h 85% 0 mm 81 W/m2
12:04 4.1 °C 1.8 °C 1014.1 hPa NW 1.6 km/h 4.8 km/h 85% 0 mm 90 W/m2
12:10 4.2 °C 1.9 °C 1014.1 hPa NNW 3.2 km/h 4.8 km/h 85% 0 mm 109 W/m2
12:16 4.2 °C 1.9 °C 1013.8 hPa NNW 3.2 km/h 6.4 km/h 85% 0 mm 111 W/m2
12:22 4.2 °C 2.1 °C 1013.8 hPa NW 3.2 km/h 3.2 km/h 86% 0 mm 84 W/m2
12:28 4.1 °C 2.2 °C 1013.8 hPa NW 1.6 km/h 3.2 km/h 87% 0 mm 62 W/m2
12:34 4.1 °C 2.2 °C 1013.8 hPa NW 1.6 km/h 1.6 km/h 87% 0 mm 74 W/m2
12:40 4.1 °C 2.1 °C 1013.8 hPa NW 1.6 km/h 3.2 km/h 87% 0 mm 93 W/m2
12:46 4 °C 2.1 °C 1013.8 hPa NW 3.2 km/h 3.2 km/h 87% 0 mm 100 W/m2
12:52 3.9 °C 2.1 °C 1013.8 hPa NNW 3.2 km/h 8 km/h 88% 0 mm 93 W/m2
12:58 3.9 °C 2.1 °C 1013.8 hPa NW 6.4 km/h 12.9 km/h 88% 0 mm 105 W/m2
13:04 3.9 °C 2.1 °C 1014.1 hPa NNW 4.8 km/h 6.4 km/h 88% 0 mm 153 W/m2
13:10 4.2 °C 2.5 °C 1014.1 hPa WNW 3.2 km/h 4.8 km/h 89% 0 mm 146 W/m2
13:16 4.3 °C 2.5 °C 1014.1 hPa North 3.2 km/h 8 km/h 88% 0 mm 181 W/m2
13:22 4.4 °C 2.6 °C 1014.4 hPa NW 4.8 km/h 8 km/h 88% 0 mm 239 W/m2
13:28 4.5 °C 2.7 °C 1014.4 hPa WNW 4.8 km/h 8 km/h 88% 0 mm 267 W/m2
13:34 4.5 °C 2.5 °C 1014.4 hPa NW 6.4 km/h 11.3 km/h 87% 0 mm 253 W/m2
13:40 4.4 °C 2.3 °C 1014.4 hPa NW 6.4 km/h 8 km/h 86% 0 mm 216 W/m2
13:46 4.3 °C 2.2 °C 1014.4 hPa NW 6.4 km/h 8 km/h 86% 0 mm 244 W/m2
13:52 4.4 °C 2.3 °C 1014.4 hPa NNW 6.4 km/h 6.4 km/h 86% 0 mm 272 W/m2
13:58 4.4 °C 2.3 °C 1014.4 hPa NW 6.4 km/h 8 km/h 86% 0 mm 313 W/m2
14:04 4.6 °C 2.4 °C 1014.4 hPa WNW 6.4 km/h 6.4 km/h 86% 0 mm 338 W/m2
14:10 4.5 °C 2.3 °C 1014.4 hPa NW 6.4 km/h 6.4 km/h 86% 0 mm 316 W/m2
14:16 4.6 °C 2.6 °C 1014.4 hPa WNW 6.4 km/h 8 km/h 87% 0 mm 244 W/m2
14:22 4.3 °C 2.2 °C 1014.4 hPa NNW 6.4 km/h 8 km/h 86% 0 mm 237 W/m2
14:28 4.2 °C 2.1 °C 1014.4 hPa NW 6.4 km/h 8 km/h 86% 0 mm 243 W/m2
14:34 4.1 °C 2 °C 1014.4 hPa NW 6.4 km/h 11.3 km/h 86% 0 mm 218 W/m2
14:40 4 °C 1.9 °C 1014.8 hPa NNW 6.4 km/h 6.4 km/h 86% 0 mm 155 W/m2
14:46 3.8 °C 1.7 °C 1014.8 hPa NW 6.4 km/h 12.9 km/h 86% 0 mm 125 W/m2
14:52 3.7 °C 1.6 °C 1014.8 hPa North 8 km/h 9.7 km/h 86% 0 mm 144 W/m2
14:58 3.8 °C 1.8 °C 1014.8 hPa NW 6.4 km/h 9.7 km/h 87% 0 mm 128 W/m2
15:04 3.6 °C 1.7 °C 1015.1 hPa NW 6.4 km/h 9.7 km/h 87% 0 mm 148 W/m2
15:10 3.6 °C 1.6 °C 1014.8 hPa NW 6.4 km/h 6.4 km/h 87% 0 mm 149 W/m2
15:16 3.6 °C 1.6 °C 1015.1 hPa West 4.8 km/h 6.4 km/h 87% 0 mm 153 W/m2
15:22 3.4 °C 1.5 °C 1015.1 hPa NNW 4.8 km/h 4.8 km/h 87% 0 mm 171 W/m2
15:28 3.6 °C 1.8 °C 1015.1 hPa WNW 4.8 km/h 6.4 km/h 88% 0 mm 195 W/m2
15:34 3.6 °C 1.7 °C 1015.1 hPa WNW 4.8 km/h 9.7 km/h 87% 0 mm 211 W/m2
15:40 3.8 °C 1.8 °C 1015.1 hPa NW 4.8 km/h 6.4 km/h 87% 0 mm 188 W/m2
15:46 3.8 °C 1.5 °C 1015.1 hPa NW 6.4 km/h 9.7 km/h 85% 0 mm 176 W/m2
15:52 3.7 °C 1.4 °C 1015.1 hPa NW 6.4 km/h 8 km/h 85% 0 mm 123 W/m2
15:58 3.7 °C 1.4 °C 1015.5 hPa NNW 6.4 km/h 12.9 km/h 85% 0 mm 113 W/m2
16:04 3.5 °C 1.1 °C 1015.5 hPa NW 6.4 km/h 14.5 km/h 84% 0 mm 95 W/m2
16:10 3.4 °C 0.9 °C 1015.5 hPa NNW 6.4 km/h 6.4 km/h 84% 0 mm 84 W/m2
16:16 3.3 °C 1.1 °C 1015.5 hPa NW 6.4 km/h 6.4 km/h 85% 0 mm 107 W/m2
16:22 3.2 °C 0.9 °C 1015.8 hPa NW 6.4 km/h 6.4 km/h 85% 0 mm 91 W/m2
16:28 3.2 °C 0.9 °C 1015.8 hPa NNW 6.4 km/h 14.5 km/h 85% 0 mm 81 W/m2
16:34 3.2 °C 0.9 °C 1015.8 hPa WNW 6.4 km/h 8 km/h 85% 0 mm 69 W/m2
16:40 3.1 °C 0.9 °C 1015.8 hPa North 6.4 km/h 6.4 km/h 86% 0 mm 79 W/m2
16:46 2.9 °C 0.8 °C 1015.8 hPa NW 6.4 km/h 9.7 km/h 86% 0 mm 65 W/m2
16:52 2.9 °C 0.9 °C 1015.8 hPa WNW 6.4 km/h 6.4 km/h 87% 0 mm 58 W/m2
16:58 2.8 °C 0.9 °C 1016.1 hPa NW 6.4 km/h 6.4 km/h 87% 0 mm 54 W/m2
17:04 2.9 °C 0.9 °C 1016.1 hPa WNW 4.8 km/h 11.3 km/h 87% 0 mm 51 W/m2
17:10 2.9 °C 0.9 °C 1016.5 hPa NW 4.8 km/h 4.8 km/h 87% 0 mm 88 W/m2
17:16 2.9 °C 1 °C 1016.5 hPa NW 4.8 km/h 6.4 km/h 87% 0 mm 46 W/m2
17:22 2.9 °C 1 °C 1016.5 hPa NW 3.2 km/h 4.8 km/h 87% 0 mm 35 W/m2
17:28 2.9 °C 0.9 °C 1016.5 hPa WNW 3.2 km/h 6.4 km/h 87% 0 mm 32 W/m2
17:34 2.9 °C 0.8 °C 1016.5 hPa WNW 4.8 km/h 4.8 km/h 86% 0 mm 42 W/m2
17:40 2.9 °C 0.8 °C 1016.8 hPa NW 4.8 km/h 4.8 km/h 86% 0 mm 44 W/m2
17:46 2.9 °C 0.8 °C 1017.2 hPa NNW 3.2 km/h 4.8 km/h 86% 0 mm 33 W/m2
17:52 3 °C 0.9 °C 1017.2 hPa WNW 3.2 km/h 4.8 km/h 86% 0 mm 26 W/m2
17:58 2.9 °C 0.8 °C 1017.2 hPa WNW 4.8 km/h 9.7 km/h 86% 0 mm 21 W/m2
18:04 2.9 °C 0.8 °C 1017.2 hPa NW 4.8 km/h 4.8 km/h 86% 0 mm 25 W/m2
18:10 3 °C 0.9 °C 1017.2 hPa WNW 3.2 km/h 3.2 km/h 86% 0 mm 23 W/m2
18:16 3 °C 0.9 °C 1017.5 hPa WNW 1.6 km/h 3.2 km/h 86% 0 mm 21 W/m2
18:22 3 °C 0.9 °C 1017.5 hPa NW 1.6 km/h 4.8 km/h 86% 0 mm 30 W/m2
18:28 3.1 °C 0.9 °C 1017.5 hPa NNW 3.2 km/h 4.8 km/h 86% 0 mm 25 W/m2
18:34 3.1 °C 0.9 °C 1017.5 hPa WNW 1.6 km/h 3.2 km/h 86% 0 mm 21 W/m2
18:40 3.1 °C 1 °C 1017.5 hPa NW 1.6 km/h 4.8 km/h 86% 0 mm 16 W/m2
18:46 3.1 °C 0.8 °C 1017.5 hPa West 1.6 km/h 4.8 km/h 85% 0 mm 9 W/m2
18:52 3.1 °C 0.8 °C 1017.5 hPa WNW 3.2 km/h 8 km/h 85% 0 mm 5 W/m2
18:58 3.1 °C 0.8 °C 1017.5 hPa NW 3.2 km/h 8 km/h 85% 0 mm 0 W/m2
19:04 3.1 °C 0.8 °C 1017.5 hPa WNW 1.6 km/h 3.2 km/h 85% 0 mm 0 W/m2
19:10 3 °C 0.7 °C 1017.8 hPa NW 1.6 km/h 1.6 km/h 85% 0 mm 0 W/m2
19:16 3 °C 0.7 °C 1017.8 hPa WNW 1.6 km/h 8 km/h 85% 0 mm 0 W/m2
19:22 3 °C 0.7 °C 1017.8 hPa WNW 1.6 km/h 1.6 km/h 85% 0 mm 0 W/m2
19:28 2.9 °C 0.7 °C 1017.8 hPa WNW 1.6 km/h 1.6 km/h 85% 0 mm 0 W/m2
19:34 3 °C 0.7 °C 1017.8 hPa WNW 1.6 km/h 4.8 km/h 85% 0 mm 0 W/m2
19:40 2.9 °C 0.8 °C 1017.8 hPa WNW 1.6 km/h 3.2 km/h 86% 0 mm 0 W/m2
19:46 2.9 °C 0.8 °C 1017.8 hPa WNW 1.6 km/h 3.2 km/h 86% 0 mm 0 W/m2
19:52 2.9 °C 0.8 °C 1017.8 hPa WNW 1.6 km/h 3.2 km/h 86% 0 mm 0 W/m2
19:58 2.9 °C 0.9 °C 1017.8 hPa NW 1.6 km/h 3.2 km/h 87% 0 mm 0 W/m2
20:04 2.8 °C 0.9 °C 1017.8 hPa NW 3.2 km/h 3.2 km/h 87% 0 mm 0 W/m2
20:10 2.8 °C 0.9 °C 1017.8 hPa NW 1.6 km/h 3.2 km/h 87% 0 mm 0 W/m2
20:16 2.8 °C 0.8 °C 1017.8 hPa WNW 3.2 km/h 4.8 km/h 87% 0 mm 0 W/m2
20:22 2.7 °C 0.8 °C 1018.2 hPa WNW 3.2 km/h 8 km/h 87% 0 mm 0 W/m2
20:28 2.7 °C 0.9 °C 1018.2 hPa WNW 3.2 km/h 8 km/h 88% 0 mm 0 W/m2
20:34 2.7 °C 0.9 °C 1018.2 hPa WNW 1.6 km/h 3.2 km/h 88% 0 mm 0 W/m2
20:40 2.7 °C 0.9 °C 1018.2 hPa WSW 1.6 km/h 1.6 km/h 88% 0 mm 0 W/m2
20:46 2.6 °C 0.8 °C 1018.2 hPa WSW 1.6 km/h 3.2 km/h 88% 0 mm 0 W/m2
20:52 2.4 °C 0.7 °C 1018.2 hPa Calm   1.6 km/h 88% 0 mm 0 W/m2
20:58 2.3 °C 0.6 °C 1018.2 hPa Calm   3.2 km/h 88% 0 mm 0 W/m2
21:04 2.2 °C 0.4 °C 1018.2 hPa Calm     88% 0 mm 0 W/m2
21:10 2.1 °C 0.3 °C 1018.2 hPa Calm     88% 0 mm 0 W/m2
21:16 1.9 °C 0.3 °C 1018.2 hPa Calm     89% 0 mm 0 W/m2
21:22 1.7 °C 0.1 °C 1018.2 hPa Calm     89% 0 mm 0 W/m2
21:30 1.4 °C -0.3 °C 1018.2 hPa Calm     88% 0 mm 0 W/m2
21:36 1.2 °C -0.4 °C 1018.5 hPa Calm     89% 0 mm 0 W/m2
21:42 1.1 °C -0.6 °C 1018.5 hPa Calm     89% 0 mm 0 W/m2
21:48 0.9 °C -0.7 °C 1018.5 hPa Calm     89% 0 mm 0 W/m2
21:54 0.8 °C -0.8 °C 1018.5 hPa Calm     89% 0 mm 0 W/m2
22:00 0.7 °C -0.9 °C 1018.5 hPa Calm     89% 0 mm 0 W/m2
22:06 0.6 °C -1.1 °C 1018.5 hPa Calm     89% 0 mm 0 W/m2
22:12 0.6 °C -0.8 °C 1018.5 hPa Calm     90% 0 mm 0 W/m2
22:18 0.6 °C -0.8 °C 1018.5 hPa Calm     90% 0 mm 0 W/m2
22:24 0.6 °C -0.9 °C 1018.8 hPa Calm     90% 0 mm 0 W/m2
22:30 0.4 °C -1 °C 1018.8 hPa Calm     90% 0 mm 0 W/m2
22:36 0.3 °C -1.1 °C 1019.2 hPa Calm     90% 0 mm 0 W/m2
22:42 0.2 °C -1.1 °C 1019.2 hPa Calm     91% 0 mm 0 W/m2
22:48 0.2 °C -1.1 °C 1019.2 hPa Calm     91% 0 mm 0 W/m2
22:54 0.1 °C -1.2 °C 1019.2 hPa Calm     91% 0 mm 0 W/m2
23:00 -0.2 °C -1.6 °C 1019.2 hPa Calm     90% 0 mm 0 W/m2
23:06 -0.3 °C -1.6 °C 1019.2 hPa Calm     91% 0 mm 0 W/m2
23:12 -0.4 °C -1.7 °C 1019.2 hPa Calm     91% 0 mm 0 W/m2
23:18 -0.5 °C -1.8 °C 1019.2 hPa Calm     91% 0 mm 0 W/m2
23:24 -0.6 °C -1.8 °C 1019.2 hPa Calm     91% 0 mm 0 W/m2
23:30 -0.6 °C -1.9 °C 1019.2 hPa Calm     91% 0 mm 0 W/m2
23:36 -0.6 °C -1.9 °C 1019.2 hPa Calm     91% 0 mm 0 W/m2
23:42 -0.6 °C -1.8 °C 1019.2 hPa Calm     91% 0 mm 0 W/m2
23:48 -0.5 °C -1.8 °C 1019.2 hPa Calm     91% 0 mm 0 W/m2
23:54 -0.4 °C -1.6 °C 1019.2 hPa Calm     92% 0 mm 0 W/m2
Country Meadow, Clay, NY, USA
Compliments of Weather Underground - 2 mb